Time,TemperatureF,DewpointF,PressureIn,WindDirection,WindDirectionDegrees,WindSpeedMPH,WindSpeedGustMPH,Humidity,HourlyPrecipIn,Conditions,Clouds,dailyrainin,SolarRadiationWatts/m^2,SoftwareType,DateUTC
2013-05-01 00:02:00,54.0,35.0,-100.00,West,281,10.0,16.0,48,0.00,,,-99.99,0.000000,,2013-05-01 05:02:00,
2013-05-01 00:32:00,53.0,34.0,-100.00,WNW,303,13.0,22.0,48,0.00,,,-99.99,0.000000,,2013-05-01 05:32:00,
2013-05-01 00:42:00,53.0,34.0,-100.00,WNW,303,13.0,22.0,48,0.00,,,-99.99,0.000000,,2013-05-01 05:42:00,
2013-05-01 00:52:00,53.0,34.0,-100.00,WNW,303,13.0,22.0,48,0.00,,,-99.99,0.000000,,2013-05-01 05:52:00,
2013-05-01 01:02:00,53.0,34.0,-100.00,WNW,303,13.0,22.0,48,0.00,,,-99.99,0.000000,,2013-05-01 06:02:00,
2013-05-01 01:32:00,50.0,32.0,-100.00,WNW,294,13.0,22.0,50,0.00,,,-99.99,0.000000,,2013-05-01 06:32:00,
2013-05-01 01:42:00,50.0,32.0,-100.00,WNW,294,13.0,22.0,50,0.00,,,-99.99,0.000000,,2013-05-01 06:42:00,
2013-05-01 01:52:00,50.0,32.0,-100.00,WNW,294,13.0,22.0,50,0.00,,,-99.99,0.000000,,2013-05-01 06:52:00,
2013-05-01 02:01:00,50.0,32.0,-100.00,WNW,294,13.0,22.0,50,0.00,,,-99.99,0.000000,,2013-05-01 07:01:00,
2013-05-01 02:32:00,48.0,31.0,-100.00,WNW,300,11.0,19.0,52,0.00,,,-99.99,0.000000,,2013-05-01 07:32:00,
2013-05-01 02:42:00,48.0,31.0,-100.00,WNW,300,11.0,19.0,52,0.00,,,-99.99,0.000000,,2013-05-01 07:42:00,
2013-05-01 02:52:00,48.0,31.0,-100.00,WNW,300,11.0,19.0,52,0.00,,,-99.99,0.000000,,2013-05-01 07:52:00,
2013-05-01 03:02:00,48.0,31.0,-100.00,WNW,300,11.0,19.0,52,0.00,,,-99.99,0.000000,,2013-05-01 08:02:00,
2013-05-01 03:32:00,46.0,30.0,-100.00,WNW,294,10.0,21.0,53,0.00,,,0.01,0.000000,,2013-05-01 08:32:00,
2013-05-01 03:42:00,46.0,30.0,-100.00,WNW,294,10.0,21.0,53,0.00,,,0.01,0.000000,,2013-05-01 08:42:00,
2013-05-01 03:53:00,46.0,30.0,-100.00,WNW,294,10.0,21.0,53,0.00,,,0.01,0.000000,,2013-05-01 08:53:00,
2013-05-01 04:01:00,46.0,30.0,-100.00,WNW,294,10.0,21.0,53,0.00,,,0.01,0.000000,,2013-05-01 09:01:00,
2013-05-01 04:33:00,44.0,30.0,-100.00,WNW,299,8.0,14.0,58,0.00,,,-99.99,0.000000,,2013-05-01 09:33:00,
2013-05-01 04:43:00,44.0,30.0,-100.00,WNW,299,8.0,14.0,58,0.00,,,-99.99,0.000000,,2013-05-01 09:43:00,
2013-05-01 04:53:00,44.0,30.0,-100.00,WNW,299,8.0,14.0,58,0.00,,,-99.99,0.000000,,2013-05-01 09:53:00,
2013-05-01 05:02:00,44.0,30.0,-100.00,WNW,299,8.0,14.0,58,0.00,,,-99.99,0.000000,,2013-05-01 10:02:00,
2013-05-01 05:33:00,42.0,31.0,-100.00,NW,313,6.0,13.0,65,0.00,,,-99.99,0.000000,,2013-05-01 10:33:00,
2013-05-01 05:42:00,42.0,31.0,-100.00,NW,313,6.0,13.0,65,0.00,,,-99.99,0.000000,,2013-05-01 10:42:00,
2013-05-01 05:53:00,42.0,31.0,-100.00,NW,313,6.0,13.0,65,0.00,,,-99.99,0.000000,,2013-05-01 10:53:00,
2013-05-01 06:02:00,42.0,31.0,-100.00,NW,313,6.0,13.0,65,0.00,,,-99.99,0.000000,,2013-05-01 11:02:00,
2013-05-01 06:32:00,40.0,29.0,-100.00,NW,320,10.0,15.0,65,0.00,,,-99.99,0.000000,,2013-05-01 11:32:00,
2013-05-01 06:42:00,40.0,29.0,-100.00,NW,320,10.0,15.0,65,0.00,,,-99.99,0.000000,,2013-05-01 11:42:00,
2013-05-01 06:52:00,40.0,29.0,-100.00,NW,320,10.0,15.0,65,0.00,,,-99.99,0.000000,,2013-05-01 11:52:00,
2013-05-01 07:01:00,40.0,29.0,-100.00,NW,320,10.0,15.0,65,0.00,,,-99.99,0.000000,,2013-05-01 12:01:00,
2013-05-01 08:32:00,37.0,25.0,-100.00,NW,317,11.0,13.0,62,-99.99,,,-99.99,12.000000,,2013-05-01 13:32:00,
2013-05-01 08:42:00,37.0,25.0,-100.00,NW,317,11.0,13.0,62,-99.99,,,-99.99,12.000000,,2013-05-01 13:42:00,
2013-05-01 08:52:00,37.0,25.0,-100.00,NW,317,11.0,13.0,62,-99.99,,,-99.99,12.000000,,2013-05-01 13:52:00,
2013-05-01 09:02:00,37.0,25.0,-100.00,NW,317,11.0,13.0,62,-99.99,,,-99.99,12.000000,,2013-05-01 14:02:00,
2013-05-01 09:32:00,37.0,24.0,-100.00,NW,314,9.0,13.0,60,0.00,,,-99.99,45.000000,,2013-05-01 14:32:00,
2013-05-01 09:42:00,37.0,24.0,-100.00,NW,314,9.0,13.0,60,0.00,,,-99.99,45.000000,,2013-05-01 14:42:00,
2013-05-01 09:52:00,37.0,24.0,-100.00,NW,314,9.0,13.0,60,0.00,,,-99.99,45.000000,,2013-05-01 14:52:00,
2013-05-01 10:01:00,37.0,24.0,-100.00,NW,314,9.0,13.0,60,0.00,,,-99.99,45.000000,,2013-05-01 15:01:00,
2013-05-01 10:33:00,37.0,24.0,-100.00,WNW,282,7.0,12.0,60,0.00,,,-99.99,105.000000,,2013-05-01 15:33:00,
2013-05-01 10:43:00,37.0,24.0,-100.00,WNW,282,7.0,12.0,60,0.00,,,-99.99,105.000000,,2013-05-01 15:43:00,
2013-05-01 10:53:00,37.0,24.0,-100.00,WNW,282,7.0,12.0,60,0.00,,,-99.99,105.000000,,2013-05-01 15:53:00,
2013-05-01 11:03:00,37.0,24.0,-100.00,WNW,282,7.0,12.0,60,0.00,,,-99.99,105.000000,,2013-05-01 16:03:00,
2013-05-01 11:32:00,38.0,25.0,-100.00,NNW,336,8.0,12.0,58,0.00,,,0.00,200.000000,,2013-05-01 16:32:00,
2013-05-01 11:42:00,38.0,25.0,-100.00,NNW,336,8.0,12.0,58,0.00,,,0.00,200.000000,,2013-05-01 16:42:00,
2013-05-01 11:53:00,38.0,25.0,-100.00,NNW,336,8.0,12.0,58,0.00,,,0.00,200.000000,,2013-05-01 16:53:00,
2013-05-01 12:02:00,38.0,25.0,-100.00,NNW,336,8.0,12.0,58,0.00,,,0.00,200.000000,,2013-05-01 17:02:00,
2013-05-01 12:32:00,39.0,25.0,-100.00,NW,313,11.0,18.0,56,0.00,,,-99.99,211.000000,,2013-05-01 17:32:00,
2013-05-01 12:42:00,39.0,25.0,-100.00,NW,313,11.0,18.0,56,0.00,,,-99.99,211.000000,,2013-05-01 17:42:00,
2013-05-01 12:52:00,39.0,25.0,-100.00,NW,313,11.0,18.0,56,0.00,,,-99.99,211.000000,,2013-05-01 17:52:00,
2013-05-01 13:01:00,39.0,25.0,-100.00,NW,313,11.0,18.0,56,0.00,,,-99.99,211.000000,,2013-05-01 18:01:00,
2013-05-01 13:32:00,41.0,26.0,-100.00,NNW,330,13.0,19.0,55,0.00,,,0.00,457.000000,,2013-05-01 18:32:00,
2013-05-01 13:42:00,41.0,26.0,-100.00,NNW,330,13.0,19.0,55,0.00,,,0.00,457.000000,,2013-05-01 18:42:00,
2013-05-01 13:52:00,41.0,26.0,-100.00,NNW,330,13.0,19.0,55,0.00,,,0.00,457.000000,,2013-05-01 18:52:00,
2013-05-01 14:02:00,41.0,26.0,-100.00,NNW,330,13.0,19.0,55,0.00,,,0.00,457.000000,,2013-05-01 19:02:00,
2013-05-01 14:32:00,41.0,25.0,-100.00,NW,326,12.0,17.0,53,0.00,,,0.00,383.000000,,2013-05-01 19:32:00,
2013-05-01 14:43:00,41.0,25.0,-100.00,NW,326,12.0,17.0,53,0.00,,,0.00,383.000000,,2013-05-01 19:43:00,
2013-05-01 14:52:00,41.0,25.0,-100.00,NW,326,12.0,17.0,53,0.00,,,0.00,383.000000,,2013-05-01 19:52:00,
2013-05-01 15:01:00,41.0,25.0,-100.00,NW,326,12.0,17.0,53,0.00,,,0.00,383.000000,,2013-05-01 20:01:00,
2013-05-01 15:32:00,41.0,22.0,-100.00,NW,321,16.0,21.0,46,0.00,,,0.00,378.000000,,2013-05-01 20:32:00,
2013-05-01 15:42:00,41.0,22.0,-100.00,NW,321,16.0,21.0,46,0.00,,,0.00,378.000000,,2013-05-01 20:42:00,
2013-05-01 15:52:00,41.0,22.0,-100.00,NW,321,16.0,21.0,46,0.00,,,0.00,378.000000,,2013-05-01 20:52:00,
2013-05-01 16:01:00,41.0,22.0,-100.00,NW,321,16.0,21.0,46,0.00,,,0.00,378.000000,,2013-05-01 21:01:00,
2013-05-01 16:32:00,44.0,23.0,-100.00,NW,318,14.0,22.0,43,0.00,,,0.00,468.000000,,2013-05-01 21:32:00,
2013-05-01 16:43:00,44.0,23.0,-100.00,NW,318,14.0,22.0,43,0.00,,,0.00,468.000000,,2013-05-01 21:43:00,
2013-05-01 16:53:00,44.0,23.0,-100.00,NW,318,14.0,22.0,43,0.00,,,0.00,468.000000,,2013-05-01 21:53:00,
2013-05-01 17:03:00,44.0,23.0,-100.00,NW,318,14.0,22.0,43,0.00,,,0.00,468.000000,,2013-05-01 22:03:00,
2013-05-01 17:33:00,43.0,23.0,-100.00,NW,312,13.0,19.0,44,0.00,,,0.00,263.000000,,2013-05-01 22:33:00,
2013-05-01 17:42:00,43.0,23.0,-100.00,NW,312,13.0,19.0,44,0.00,,,0.00,263.000000,,2013-05-01 22:42:00,
2013-05-01 17:53:00,43.0,23.0,-100.00,NW,312,13.0,19.0,44,0.00,,,0.00,263.000000,,2013-05-01 22:53:00,
2013-05-01 18:02:00,43.0,23.0,-100.00,NW,312,13.0,19.0,44,0.00,,,0.00,263.000000,,2013-05-01 23:02:00,
2013-05-01 18:32:00,42.0,23.0,-100.00,NW,325,10.0,20.0,47,0.00,,,0.00,126.000000,,2013-05-01 23:32:00,
2013-05-01 18:42:00,42.0,23.0,-100.00,NW,325,10.0,20.0,47,0.00,,,0.00,126.000000,,2013-05-01 23:42:00,
2013-05-01 18:52:00,42.0,23.0,-100.00,NW,325,10.0,20.0,47,0.00,,,0.00,126.000000,,2013-05-01 23:52:00,
2013-05-01 19:01:00,42.0,23.0,-100.00,NW,325,10.0,20.0,47,0.00,,,0.00,126.000000,,2013-05-02 00:01:00,
2013-05-01 20:32:00,41.0,24.0,-100.00,NNW,339,6.0,10.0,50,-99.99,,,0.00,21.000000,,2013-05-02 01:32:00,
2013-05-01 20:42:00,41.0,24.0,-100.00,NNW,339,6.0,10.0,50,-99.99,,,0.00,21.000000,,2013-05-02 01:42:00,
2013-05-01 20:52:00,41.0,24.0,-100.00,NNW,339,6.0,10.0,50,-99.99,,,0.00,21.000000,,2013-05-02 01:52:00,
2013-05-01 21:02:00,41.0,24.0,-100.00,NNW,339,6.0,10.0,50,-99.99,,,0.00,21.000000,,2013-05-02 02:02:00,
2013-05-01 21:32:00,40.0,24.0,-100.00,NW,318,9.0,12.0,52,0.00,,,0.00,1.000000,,2013-05-02 02:32:00,
2013-05-01 21:42:00,40.0,24.0,-100.00,NW,318,9.0,12.0,52,0.00,,,0.00,1.000000,,2013-05-02 02:42:00,
2013-05-01 21:51:00,40.0,24.0,-100.00,NW,318,9.0,12.0,52,0.00,,,0.00,1.000000,,2013-05-02 02:51:00,
2013-05-01 22:01:00,40.0,24.0,-100.00,NW,318,9.0,12.0,52,0.00,,,0.00,1.000000,,2013-05-02 03:01:00,
2013-05-01 22:33:00,40.0,25.0,-100.00,NW,325,10.0,15.0,54,0.00,,,0.00,0.000000,,2013-05-02 03:33:00,
2013-05-01 22:43:00,40.0,25.0,-100.00,NW,325,10.0,15.0,54,0.00,,,0.00,0.000000,,2013-05-02 03:43:00,
2013-05-01 22:53:00,40.0,25.0,-100.00,NW,325,10.0,15.0,54,0.00,,,0.00,0.000000,,2013-05-02 03:53:00,
2013-05-01 23:03:00,40.0,25.0,-100.00,NW,325,10.0,15.0,54,0.00,,,0.00,0.000000,,2013-05-02 04:03:00,
2013-05-01 23:33:00,39.0,25.0,-100.00,NNW,338,7.0,16.0,56,0.00,,,0.00,0.000000,,2013-05-02 04:33:00,
2013-05-01 23:43:00,39.0,25.0,-100.00,NNW,338,7.0,16.0,56,0.00,,,0.00,0.000000,,2013-05-02 04:43:00,
2013-05-01 23:52:00,39.0,25.0,-100.00,NNW,338,7.0,16.0,56,0.00,,,0.00,0.000000,,2013-05-02 04:52:00,